Location: Lewisville
(33.0462°N, 96.9942°W)
Time: 12:06:09
(UTC-05:00)

LightSail 2 - Visible Passes

Search period start: 14 May 2021 00:00
Search period end: 24 May 2021 00:00
Orbit: 684 x 702 km, 24.0° (Epoch: 14 May)

Date Brightness Start Highest point End Pass type
(mag) Time Alt. Az. Time Alt. Az. Time Alt. Az.
14 May 6.4 05:19:20 19° SW 05:20:41 21° SSW 05:24:22 10° SE visible
15 May 7.0 04:19:21 16° SSE 04:19:21 16° SSE 04:20:39 10° SE visible
15 May 7.0 05:58:57 10° SW 06:01:04 13° SSW 06:03:12 10° S visible
16 May 6.8 04:58:05 16° S 04:58:05 16° S 05:00:12 10° SSE visible
18 May 7.4 22:12:36 10° SSW 22:12:43 10° SSW 22:12:43 10° SSW visible
19 May 7.0 21:09:41 10° S 21:11:39 12° SSE 21:13:04 11° SE visible
20 May 6.5 21:48:16 10° SSW 21:51:53 20° SSE 21:51:53 20° SSE visible
21 May 6.6 22:28:06 10° SW 22:30:32 22° SSW 22:30:32 22° SSW visible
22 May 6.3 21:24:09 10° SW 21:28:12 24° S 21:30:29 18° SE visible
22 May 7.4 23:08:24 10° WSW 23:09:03 13° WSW 23:09:03 13° WSW visible
23 May 6.0 22:04:14 10° WSW 22:08:36 29° S 22:08:52 29° S visible
